Stündliche Wetter Otorma

Heute, 10 April, Samstag

Zeit Temperatur Niederschläge Wind Luftdruck Luftfeuchtigkeit
00:00 +2°C° 0 mm 2 m/S 757 mmHg 77%
01:00 +2°C° 0 mm 2 m/S 757 mmHg 79%
02:00 +2°C° 0 mm 2 m/S 757 mmHg 81%
03:00 +1°C° 0 mm 2 m/S 757 mmHg 83%
04:00 +1°C° 0 mm 2 m/S 757 mmHg 83%
05:00 +1°C° 0 mm 2 m/S 757 mmHg 83%
06:00 +1°C° 0 mm 2 m/S 757 mmHg 84%
07:00 +2°C° 0 mm 3 m/S 757 mmHg 76%
08:00 +3°C° 0 mm 3 m/S 757 mmHg 68%
09:00 +5°C° 0 mm 4 m/S 757 mmHg 60%
10:00 +6°C° 0 mm 4 m/S 757 mmHg 57%
11:00 +6°C° 0 mm 4 m/S 757 mmHg 53%
12:00 +7°C° 0 mm 4 m/S 757 mmHg 50%
13:00 +7°C° 0 mm 4 m/S 756 mmHg 48%
14:00 +8°C° 0 mm 4 m/S 756 mmHg 47%
15:00 +8°C° 0 mm 4 m/S 756 mmHg 45%
16:00 +7°C° 0 mm 4 m/S 756 mmHg 50%
17:00 +7°C° 0 mm 4 m/S 756 mmHg 55%
18:00 +7°C° 0 mm 3 m/S 756 mmHg 60%
19:00 +5°C° 0 mm 3 m/S 756 mmHg 67%
20:00 +4°C° 0 mm 3 m/S 756 mmHg 75%
21:00 +4°C° 0 mm 2 m/S 756 mmHg 82%
22:00 +3°C° 0 mm 2 m/S 756 mmHg 84%
23:00 +3°C° 0 mm 2 m/S 756 mmHg 86%

Morgen, 11 April, Sonntag

Zeit Temperatur Niederschläge Wind Luftdruck Luftfeuchtigkeit
00:00 +2°C° 0 mm 2 m/S 756 mmHg 88%
01:00 +2°C° 0 mm 2 m/S 757 mmHg 88%
02:00 +1°C° 0 mm 3 m/S 757 mmHg 87%
03:00 0°C° 0 mm 3 m/S 757 mmHg 87%
04:00 0°C° 0 mm 3 m/S 757 mmHg 87%
05:00 0°C° 0 mm 3 m/S 757 mmHg 87%
06:00 0°C° 0 mm 3 m/S 758 mmHg 87%
07:00 +1°C° 0 mm 3 m/S 758 mmHg 78%
08:00 +3°C° 0 mm 4 m/S 758 mmHg 69%
09:00 +5°C° 0 mm 4 m/S 759 mmHg 60%
10:00 +6°C° 0 mm 5 m/S 759 mmHg 54%
11:00 +8°C° 0 mm 5 m/S 759 mmHg 48%
12:00 +9°C° 0 mm 5 m/S 759 mmHg 42%
13:00 +10°C° 0 mm 5 m/S 759 mmHg 41%
14:00 +12°C° 0 mm 5 m/S 759 mmHg 40%
15:00 +12°C° 0 mm 5 m/S 759 mmHg 39%
16:00 +10°C° 0 mm 5 m/S 759 mmHg 46%
17:00 +9°C° 0 mm 5 m/S 759 mmHg 53%
18:00 +9°C° 0 mm 5 m/S 759 mmHg 60%
19:00 +8°C° 0 mm 5 m/S 759 mmHg 67%
20:00 +7°C° 0 mm 5 m/S 759 mmHg 74%
21:00 +6°C° 0 mm 5 m/S 759 mmHg 81%
22:00 +6°C° 0 mm 4 m/S 759 mmHg 84%
23:00 +5°C° 0 mm 4 m/S 759 mmHg 87%

übermorgen, 12 April, Montag

Zeit Temperatur Niederschläge Wind Luftdruck Luftfeuchtigkeit
00:00 +5°C° 0 mm 4 m/S 759 mmHg 90%
01:00 +5°C° 0 mm 4 m/S 759 mmHg 91%
02:00 +5°C° 0 mm 4 m/S 759 mmHg 92%
03:00 +5°C° 0 mm 4 m/S 759 mmHg 93%
04:00 +5°C° 0 mm 4 m/S 759 mmHg 93%
05:00 +5°C° 0 mm 4 m/S 759 mmHg 93%
06:00 +5°C° 0 mm 4 m/S 759 mmHg 93%
07:00 +6°C° 0 mm 4 m/S 759 mmHg 88%
08:00 +8°C° 0 mm 5 m/S 759 mmHg 82%
09:00 +9°C° 0 mm 5 m/S 759 mmHg 77%
10:00 +12°C° 0 mm 5 m/S 759 mmHg 70%
11:00 +14°C° 0 mm 4 m/S 759 mmHg 63%
12:00 +17°C° 0 mm 4 m/S 758 mmHg 57%
13:00 +18°C° 0 mm 4 m/S 758 mmHg 52%
14:00 +19°C° 0 mm 5 m/S 758 mmHg 48%
15:00 +20°C° 0 mm 5 m/S 758 mmHg 43%
16:00 +19°C° 0 mm 4 m/S 758 mmHg 46%
17:00 +19°C° 0 mm 4 m/S 758 mmHg 50%
18:00 +18°C° 0 mm 4 m/S 758 mmHg 53%
19:00 +15°C° 0 mm 4 m/S 758 mmHg 59%
20:00 +14°C° 0 mm 4 m/S 758 mmHg 64%
21:00 +13°C° 0 mm 4 m/S 758 mmHg 70%
22:00 +12°C° 0 mm 4 m/S 758 mmHg 72%
23:00 +11°C° 0 mm 4 m/S 758 mmHg 74%

13 April, Dienstag

Zeit Temperatur Niederschläge Wind Luftdruck Luftfeuchtigkeit
00:00 +11°C° 0 mm 4 m/S 758 mmHg 76%
01:00 +10°C° 0 mm 3 m/S 758 mmHg 76%
02:00 +9°C° 0 mm 3 m/S 758 mmHg 76%
03:00 +8°C° 0 mm 3 m/S 758 mmHg 77%
04:00 +8°C° 0 mm 3 m/S 758 mmHg 75%
05:00 +8°C° 0 mm 3 m/S 758 mmHg 74%
06:00 +7°C° 0 mm 3 m/S 758 mmHg 73%
07:00 +8°C° 0 mm 4 m/S 758 mmHg 66%
08:00 +11°C° 0 mm 4 m/S 758 mmHg 59%
09:00 +13°C° 0 mm 5 m/S 758 mmHg 51%
10:00 +15°C° 0 mm 5 m/S 758 mmHg 46%
11:00 +16°C° 0 mm 5 m/S 757 mmHg 41%
12:00 +19°C° 0 mm 5 m/S 757 mmHg 36%
13:00 +19°C° 0 mm 5 m/S 757 mmHg 34%
14:00 +20°C° 0 mm 5 m/S 757 mmHg 33%
15:00 +20°C° 0 mm 5 m/S 757 mmHg 31%
16:00 +19°C° 0 mm 4 m/S 756 mmHg 35%
17:00 +18°C° 0 mm 3 m/S 756 mmHg 40%
18:00 +18°C° 0 mm 3 m/S 756 mmHg 44%
19:00 +16°C° 0 mm 3 m/S 756 mmHg 49%
20:00 +14°C° 0 mm 3 m/S 756 mmHg 54%
21:00 +12°C° 0 mm 3 m/S 756 mmHg 58%
22:00 +12°C° 0 mm 3 m/S 756 mmHg 60%
23:00 +11°C° 0 mm 3 m/S 756 mmHg 61%

14 April, Mittwoch

Zeit Temperatur Niederschläge Wind Luftdruck Luftfeuchtigkeit
00:00 +10°C° 0 mm 3 m/S 756 mmHg 63%
01:00 +10°C° 0 mm 3 m/S 756 mmHg 64%
02:00 +9°C° 0 mm 3 m/S 756 mmHg 65%
03:00 +9°C° 0 mm 3 m/S 756 mmHg 66%
04:00 +9°C° 0 mm 3 m/S 756 mmHg 67%
05:00 +8°C° 0 mm 3 m/S 755 mmHg 67%
06:00 +8°C° 0 mm 3 m/S 755 mmHg 68%
07:00 +10°C° 0 mm 3 m/S 755 mmHg 62%
08:00 +12°C° 0 mm 4 m/S 755 mmHg 56%
09:00 +14°C° 0 mm 5 m/S 755 mmHg 50%
10:00 +15°C° 0 mm 5 m/S 755 mmHg 45%
11:00 +17°C° 0 mm 5 m/S 755 mmHg 40%
12:00 +19°C° 0 mm 5 m/S 754 mmHg 35%
13:00 +20°C° 0 mm 5 m/S 754 mmHg 33%
14:00 +20°C° 0 mm 5 m/S 754 mmHg 31%
15:00 +21°C° 0 mm 5 m/S 753 mmHg 29%
16:00 +20°C° 0 mm 4 m/S 753 mmHg 34%
17:00 +19°C° 0 mm 3 m/S 753 mmHg 38%
18:00 +18°C° 0 mm 3 m/S 753 mmHg 43%
19:00 +17°C° 0 mm 3 m/S 753 mmHg 47%
20:00 +14°C° 0 mm 3 m/S 753 mmHg 52%
21:00 +13°C° 0 mm 3 m/S 753 mmHg 56%
22:00 +12°C° 0 mm 3 m/S 752 mmHg 58%
23:00 +11°C° 0 mm 3 m/S 752 mmHg 61%

15 April, Donnerstag

Zeit Temperatur Niederschläge Wind Luftdruck Luftfeuchtigkeit
00:00 +11°C° 0 mm 3 m/S 752 mmHg 63%
01:00 +10°C° 0 mm 3 m/S 752 mmHg 65%
02:00 +10°C° 0 mm 3 m/S 752 mmHg 66%
03:00 +9°C° 0 mm 3 m/S 752 mmHg 68%
04:00 +9°C° 0 mm 3 m/S 752 mmHg 69%
05:00 +9°C° 0 mm 3 m/S 752 mmHg 70%
06:00 +8°C° 0 mm 3 m/S 752 mmHg 70%
07:00 +10°C° 0 mm 3 m/S 751 mmHg 64%
08:00 +12°C° 0 mm 3 m/S 751 mmHg 58%
09:00 +13°C° 0 mm 4 m/S 751 mmHg 51%
10:00 +15°C° 0 mm 4 m/S 751 mmHg 46%
11:00 +17°C° 0 mm 4 m/S 750 mmHg 41%
12:00 +19°C° 0 mm 4 m/S 750 mmHg 37%
13:00 +19°C° 0 mm 4 m/S 750 mmHg 37%
14:00 +19°C° 0 mm 3 m/S 749 mmHg 38%
15:00 +19°C° 0 mm 3 m/S 749 mmHg 39%
16:00 +18°C° 0 mm 3 m/S 748 mmHg 42%
17:00 +18°C° 0 mm 2 m/S 748 mmHg 45%
18:00 +17°C° 0 mm 2 m/S 747 mmHg 48%
19:00 +16°C° 0 mm 2 m/S 747 mmHg 53%
20:00 +13°C° 0 mm 3 m/S 746 mmHg 57%
21:00 +12°C° 0 mm 3 m/S 746 mmHg 61%
22:00 +12°C° 0 mm 3 m/S 745 mmHg 64%
23:00 +12°C° 0 mm 2 m/S 745 mmHg 66%
Mehr zeigen

Wir brauchen deine Erlaubnis

Meteoprog und unser Service Anbieter werden persönliche Daten aufbewahren, so wie Cookies, Geräte Bezeichnung oder ähnliche Technologien von deinem Gerät und Prozess, so wie Persönliche Daten Inhalte und Werbungen, genauso wie social Media und den Verkehr zu analysieren.

  • Aufbewahrung und/oder Zugang zu deiner Geräte Informationen.

    Cookies, Geräte Bezeichnung oder andere Informationen, können aufbewahrt oder Zugang zu deinem Gerät erhalten, für den Grund, der oben angegeben wird.

  • Personalisierte Werbung und Inhalte, Messungen, Einblick in das Publikum und Produkt Entwicklung.

    Werbungen und Inhalte können personalisiert werden, basierend auf ein Profil. Mehr Daten können besser personalisierte Werbungen und Inhalte hinzufügen. Werbung und Inhalte können gezeigt und gemessen werden. Einblicke über das Publikum, welche die Werbung gesehen haben und den Inhalt, können abgeleitet werden. So wie Daten können genutzt werden, um es zu verbessern oder die Benutzer Erfahrung zu verbessern das System und die Software.

Wenn du “Ich stimme zu” klickst, erlaubst du uns, die Cookies zu benutzen die Geräte Bezeichnung, den Web oder ähnliche Technologien zu benutzen. Deine Settings, können in deinem Gerät bei deinem Browser geändert werden.

Für den bestimmten Zweck, berechtigten Interessen beruhen darauf, mehr als auf den Inhalt. Du kannst mehr darüber in unseren Privaten und Cookie Politik lesen.